OBJECT Z, 68439

Orbit data source: Space-Track

You're viewing an uncataloged RSO

Recently launched and/or uncataloged RSOs may have evolving metadata. Metadata may include the following, but is not limited to: Owner, Manufacturer, Bus, Motor, and Mission.

OBJECT Z, 68439 is a satellite in SSO that was launched on Mon, 30 Mar 2026 UTC via an FALCON 9 launch vehicle from the Air Force Western Test Range (AFWTR). Unknown objects in Earth's orbit typically refer to objects detected orbiting the Earth but have not yet been identified or cataloged. These objects could be anything from previously untracked satellites, spent rocket stages, debris from satellite collisions, or even natural meteoroids temporarily captured by Earth's gravity.

Loading next visibility...
Identifier
68439, 2026-067Z
Orbit
SSO
Country
Flag of TBDTBD
Related business
None
Manufacturer
Unknown
Mission
Operational Defense Technology
Bus & Motor
Unknown
Mass
Unknown
Launch date (UTC)
2026-03-30 (6 months ago)
Launch vehicle
FALCON 9
Launch site
Air Force Western Test Range (AFWTR)
Object type
Unknown
Shape & HBR
Box, 0.2 m
Radar Cross Section
0.035 m², Medium (>0.1 m² and < 1m²)

Expand to show TLE details & history
Last TLE update: 1 day ago

TLE from 1 day ago
0 OBJECT Z
1 68439U 26067Z   26262.34482758  .00010184  00000-0  45067-3 0  9999
2 68439  97.4599 219.8287 0004903  90.8087 269.3711 15.21852797 26251
Epoch: 2026-09-19T08:16Z
TLE epoch observation values (Epoch: 2026-09-19T08:16:33.102Z)
Latitude
-0.00003°
Longitude
97.43608°
Altitude
503.382 km
Speed
7.613 km/s
True Right ascension
14h 39m 18s
True Declination
0° 00' 00"
Sunlit
Object was in daylight at epoch
Visualization orbit readout
Latitude
Unknown
Longitude
Unknown
Altitude
Unknown
Speed
Unknown
Apparent Right ascension
Unknown
Apparent Declination
Unknown
Sunlit
N/A
Visualization observer readout
Local Sidereal Time
03:11:44
Azimuth
Unknown
Elevation
Unknown
Doppler factor
Unknown
Orbital elements
Apogee altitude
500.589 km
Perigee altitude
493.847 km
Semi-major axis
6,875.355 km
Eccentricity
0.00049
Inclination
97.4599°
RAAN
219.8287°
Arg. of periapsis
90.8087°
True anomaly
269.31492°
Mean anomaly
269.3711°
Eccentric anomaly
269.34301°
Mean motion
3.80715 °/min
Orbital period
94.56 mins
BSTAR
0.00045067
Loading maneuver chart data...
Computing Atmospheric mass density...
Loading historical data...
Loading historical data...
Loading historical data...
Loading historical data...
Loading historical data...
Loading historical data...
Loading historical data...

Documentation

Showing up to 5 results
|